STARLINK-32619, 62074

Orbit data source: Space-Track

STARLINK-32619, 62074 is a payload satellite owned by SpaceX/Seattle (US) in LEO that was launched on Sun, 24 Nov 2024 UTC via an FALCON 9 launch vehicle from the Air Force Western Test Range (AFWTR). Payload-class satellites include a variety of spacecraft equipped with specific instruments for various scientific and technological missions. These include communications satellites like Starlink; space stations such as the ISS; scientific satellites like the Hubble; Earth observation satellites from companies like Planet Labs, Umbra, and HawkEye 360; GPS; miniature CubeSats for education and research; and military/defense satellites.

Loading next visibility...
Identifier
62074, 2024-217T
Orbit
LEO
Country
Flag of USUS
Related business
Manufacturer
SpaceX/Seattle
Mission
Operational Commercial Communications
Bus & Motor
STARLINK V2M, Unknown motor
Mass
730 kg wet, ~700 kg dry
Launch date (UTC)
2024-11-24 (1 year ago)
Launch vehicle
FALCON 9
Launch site
Air Force Western Test Range (AFWTR)
Object type
Payload
Rocket body
Debris
Shape & HBR
Box + 2 Pan, 17.7 m
Radar Cross Section
33.884 m², Large (>1 m²)

Expand to show TLE details & history
Last TLE update: 10 hours ago

TLE from 10 hours ago
0 STARLINK-32619
1 62074U 24217T   26095.25111359  .00028104  00000-0  95758-3 0  9996
2 62074  53.1598  70.8319 0001392  82.9062 277.2097 15.30193994 77486
Epoch: 2026-04-05T06:01Z
TLE epoch observation values (Epoch: 2026-04-05T06:01:36.214Z)
Latitude
-0.00001°
Longitude
146.87178°
Altitude
476.013 km
Speed
7.629 km/s
True Right ascension
04h 43m 19s
True Declination
0° 00' 00"
Sunlit
Object was in daylight at epoch
Visualization orbit readout
Latitude
Unknown
Longitude
Unknown
Altitude
Unknown
Speed
Unknown
Apparent Right ascension
Unknown
Apparent Declination
Unknown
Sunlit
N/A
Visualization observer readout
Local Sidereal Time
21:53:46
Azimuth
Unknown
Elevation
Unknown
Doppler factor
Unknown
Orbital elements
Apogee altitude
476.443 km
Perigee altitude
474.535 km
Semi-major axis
6,853.626 km
Eccentricity
0.00014
Inclination
53.1598°
RAAN
70.8319°
Arg. of periapsis
82.9062°
True anomaly
277.19387°
Mean anomaly
277.2097°
Eccentric anomaly
277.20179°
Mean motion
3.82527 °/min
Orbital period
94.11 mins
BSTAR
0.00095758
Loading maneuver chart data...
Computing Atmospheric mass density...
Loading historical data...
Loading historical data...
Loading historical data...
Loading historical data...
Loading historical data...
Loading historical data...
Loading historical data...

Documentation

Showing up to 5 results
|